Torna al catalogo

SL-16 DEB

LostLEO
NORAD 39880·DEBRIS·🇷🇺 Russia

Lanciato Mar 26, 1993 da Baikonur Cosmodrome

Loading…

Prossimi Passaggi (prossime 24 ore)

TLE

ObsoletoSource: Space-Track

Epoca: Sep 6, 2022, 17:49 UTC

1 39880U 93016BE  22249.74297341  .00004793  00000-0  18140-2 0  9992
2 39880  70.9653 278.4846 0114980  75.8983 285.4893 14.28062491933553

Traccia SL-16 DEB in tempo reale con AllMySat

Download on the App Store